This is the latest recevied weather packets stored in our database for station/object KE8DAF-15. If no packets are shown the sender has not sent any weather packets the latest 10 day(s).
| Time | Temp. | Humidity | Pressure | Rain* | Wind** | Luminosity | Snow |
|---|---|---|---|---|---|---|---|
| 1787684583 | 24.44° C | 65% | 1003.9 hPa | 0 mm | - | - | - |
| 1787684283 | 24.44° C | 69% | 1004 hPa | 0 mm | - | - | - |
| 1787683983 | 24.44° C | 72% | 1004.1 hPa | 0 mm | - | - | - |
| 1787683683 | 23.89° C | 64% | 1004.1 hPa | 0 mm | - | - | - |
| 1787683383 | 23.89° C | 64% | 1004.2 hPa | 0 mm | - | - | - |
| 1787683083 | 24.44° C | 64% | 1004.2 hPa | 0 mm | - | - | - |
| 1787682783 | 24.44° C | 62% | 1004.2 hPa | 0 mm | - | - | - |
| 1787682483 | 23.89° C | 66% | 1004.3 hPa | 0 mm | - | - | - |
| 1787682183 | 23.33° C | 70% | 1004.4 hPa | 0 mm | - | - | - |
| 1787681883 | 23.33° C | 66% | 1004.4 hPa | 0 mm | - | - | - |
| 1787681583 | 23.89° C | 64% | 1004.5 hPa | 0 mm | - | - | - |
| 1787681283 | 24.44° C | 63% | 1004.5 hPa | 0 mm | - | - | - |
| 1787680983 | 24.44° C | 67% | 1004.5 hPa | 0 mm | - | - | - |
| 1787680683 | 23.89° C | 67% | 1004.6 hPa | 0 mm | - | - | - |
| 1787680383 | 23.89° C | 72% | 1004.6 hPa | 0 mm | - | - | - |
| 1787680084 | 23.89° C | 69% | 1004.7 hPa | 0 mm | - | - | - |
| 1787679814 | 23.33° C | 76% | 1004.8 hPa | 0 mm | - | - | - |
| 1787679783 | 23.33° C | 76% | 1004.8 hPa | 0 mm | - | - | - |
| 1787679483 | 22.78° C | 74% | 1004.8 hPa | 0 mm | - | - | - |
| 1787679183 | 22.78° C | 72% | 1004.9 hPa | 0 mm | - | - | - |
| 1787678883 | 22.78° C | 70% | 1004.9 hPa | 0 mm | - | - | - |
| 1787678585 | 22.22° C | 73% | 1004.9 hPa | 0 mm | - | - | - |
| 1787678284 | 22.22° C | 75% | 1004.9 hPa | 0 mm | - | - | - |
| 1787677983 | 21.67° C | 77% | 1005 hPa | 0 mm | - | - | - |
| 1787677683 | 21.67° C | 75% | 1005.1 hPa | 0 mm | - | - | - |
* Rain latest hour (hover to see other rain measurements)
** Current wind speed in m/s (hover to see current wind gust speed)